[[{"header":{"parameterUnit":"m.s-1","parameterCategory":2,"la1":30.2991,"la2":30.254,"lo1":-89.0895,"lo2":-89.0444,"dy":0.0017,"dx":0.0017,"nx":28,"ny":28,"refTime":"2024-06-18T09:00:00:Z","depth":"0","parameterNumber":2,"parameterNumberName":"U-component_of_CURRENTS"},"data":[0,0,0,0,0,0,0,0,0,0,0,0,0,0,0,0,0,0,0,0,0,0,0,0,0,0,0,0,0,0,0,0,0,0,0,0,0,0,0,0,0,0,0,0,0,0,0,0,0,0,0,0,0,0,0,0,0,0,-0.2766,-0.2766,0,-0.276,-0.2759,-0.2759,-0.2719,-0.2719,-0.2718,-0.2718,-0.2655,-0.2654,-0.2653,0,0,0,0,0,0,0,0,0,0,0,0,0,-0.27,-0.2701,-0.2766,-0.2766,-0.2767,-0.276,-0.2759,-0.2759,-0.2719,-0.2719,-0.2718,-0.2718,-0.2655,-0.2654,-0.2653,0,0,0,0,0,0,0,0,0,0,0,0,0,-0.271,-0.2702,-0.2766,-0.275,-0.2749,-0.276,-0.2759,-0.2759,-0.2719,-0.2719,-0.2718,-0.2717,-0.2656,-0.2654,-0.2652,-0.2657,0,0,-0.2647,-0.2646,0,0,0,0,0,0,0,0,-0.271,-0.2712,-0.2752,-0.2751,-0.275,-0.2744,-0.2714,-0.2724,-0.272,-0.2725,-0.2718,-0.2717,-0.2683,-0.2679,-0.2674,-0.2654,-0.2651,-0.2647,-0.2646,-0.2645,-0.2644,0,0,0,0,0,0,0,-0.2709,-0.2712,-0.2758,-0.2752,-0.2751,-0.2728,-0.2729,-0.2715,-0.2704,-0.2725,-0.2723,-0.2731,-0.2681,-0.2675,-0.2672,-0.265,-0.2647,-0.2645,-0.2644,-0.2643,-0.2642,-0.2643,0,0,0,0,0,0,-0.2723,-0.2712,-0.2759,-0.2759,-0.2733,-0.2731,-0.2731,-0.2742,-0.2705,-0.2701,-0.2731,-0.2729,-0.2679,-0.2674,-0.2669,-0.2691,-0.2645,-0.2643,-0.2642,-0.2641,-0.2643,-0.2644,0,0,0,0,0,0,-0.2722,-0.2728,-0.2759,-0.2738,-0.2741,-0.2734,-0.2746,-0.2743,-0.2738,-0.2712,-0.2705,-0.2731,-0.2678,-0.2672,-0.2665,-0.2688,-0.2642,-0.2641,-0.264,-0.2642,-0.2643,-0.2723,0,0,0,0,0,0,-0.272,-0.2727,-0.2734,-0.274,-0.2743,-0.2779,-0.2747,-0.2744,-0.2746,-0.2743,-0.2709,-0.2702,-0.2677,-0.2668,-0.2663,-0.2685,-0.2639,-0.2639,-0.2641,-0.2643,-0.2719,-0.2728,-0.2734,0,0,0,0,0,-0.2718,-0.2737,-0.2735,-0.274,-0.2756,-0.2781,-0.2781,-0.2768,-0.2747,-0.2757,-0.273,-0.2703,-0.2677,-0.2667,-0.2661,-0.2683,-0.2638,-0.264,-0.2642,-0.2716,-0.2726,-0.2734,0,0,0,0,0,0,-0.2707,-0.2735,-0.2733,-0.2757,-0.2774,-0.2777,-0.2782,-0.2774,-0.2761,-0.275,-0.2715,-0.2708,-0.271,-0.2686,-0.2677,-0.2689,-0.2654,-0.2655,-0.2712,-0.272,-0.2728,-0.2731,-0.2638,0,0,0,0,0,-0.2712,-0.2732,-0.2756,-0.2773,-0.2785,-0.2783,-0.2788,-0.2785,-0.2779,-0.2771,-0.2749,-0.2726,-0.2717,-0.271,-0.2695,-0.2701,-0.2679,-0.2712,-0.2719,-0.2726,-0.2724,-0.2712,-0.2718,-0.2651,-0.2651,-0.2651,0,0,-0.271,-0.2729,-0.2737,-0.2772,-0.2778,-0.2808,-0.2783,-0.28,-0.2818,-0.2767,-0.2772,-0.275,-0.2724,-0.2732,-0.2731,-0.2714,-0.2737,-0.2729,-0.2735,-0.2729,-0.2715,-0.2721,-0.2727,-0.2653,-0.2653,-0.2652,0,0,-0.2725,-0.2738,-0.2763,-0.2787,-0.2815,-0.2821,-0.2832,-0.2842,-0.2839,-0.2849,-0.2817,-0.2809,-0.2792,-0.2782,-0.2774,-0.2814,-0.2776,-0.281,-0.2851,-0.284,-0.2845,-0.2849,-0.2847,-0.285,-0.2815,-0.2816,-0.2816,0,-0.2719,-0.2758,-0.2773,-0.2811,-0.2832,-0.2833,-0.2868,-0.2875,-0.2878,-0.2881,-0.286,-0.284,-0.2818,-0.283,-0.2843,-0.2831,-0.2818,-0.2821,-0.285,-0.2853,-0.2856,-0.2852,-0.2855,-0.282,-0.2819,-0.2819,-0.2818,0,-0.2757,-0.2792,-0.2811,-0.2859,-0.2886,-0.2915,-0.2941,-0.2955,-0.2947,-0.2949,-0.2954,-0.2923,-0.2909,-0.2909,-0.2887,-0.2904,-0.2887,-0.2861,-0.2828,-0.2868,-0.2861,-0.2863,-0.2826,-0.2824,-0.2823,-0.2822,0,0,-0.2728,-0.2819,-0.2824,-0.2856,-0.2914,-0.2936,-0.298,-0.3016,-0.3032,-0.3029,-0.3045,-0.3032,-0.3005,-0.2993,-0.2966,-0.2958,-0.2975,-0.2923,-0.292,-0.2922,-0.2956,-0.2948,-0.2948,-0.2952,-0.2953,-0.2953,-0.295,0,-0.2748,-0.2823,-0.2867,-0.2929,-0.2968,-0.3001,-0.3042,-0.3073,-0.3083,-0.3099,-0.3078,-0.3075,-0.3042,-0.3028,-0.3021,-0.2983,-0.2979,-0.2978,-0.2915,-0.2913,-0.2902,-0.2949,-0.2912,-0.2906,-0.2951,-0.2951,-0.2951,0,-0.276,-0.2814,-0.2881,-0.2966,-0.2985,-0.3018,-0.3073,-0.3109,-0.3145,-0.3153,-0.3154,-0.3135,-0.3132,-0.3086,-0.3053,-0.3054,-0.3012,-0.2981,-0.2979,-0.294,-0.2906,-0.2869,-0.2906,-0.291,-0.2952,-0.2952,-0.2952,0,-0.2715,-0.2816,-0.2866,-0.2896,-0.2994,-0.3019,-0.3058,-0.311,-0.3141,-0.3172,-0.3192,-0.3185,-0.3171,-0.313,-0.3076,-0.3062,-0.3035,-0.3004,-0.296,-0.2959,-0.2898,-0.2892,-0.2929,-0.2975,-0.2975,-0.2975,-0.2975,0,-0.2713,-0.2749,-0.2843,-0.287,-0.2916,-0.2991,-0.3032,-0.3074,-0.3137,-0.3178,-0.3199,-0.3218,-0.3178,-0.3161,-0.3104,-0.3048,-0.3056,-0.2977,-0.296,-0.2928,-0.2924,-0.2898,-0.2884,-0.2975,-0.2975,-0.2975,-0.2975,0,-0.2647,-0.2721,-0.277,-0.2867,-0.2893,-0.2911,-0.3006,-0.3049,-0.3114,-0.3168,-0.318,-0.3237,-0.3222,-0.3187,-0.3125,-0.308,-0.2991,-0.2995,-0.297,-0.295,-0.2912,-0.2902,-0.2854,-0.2789,-0.2954,-0.2953,-0.2953,0,-0.2621,-0.2639,-0.2728,-0.2757,-0.2795,-0.2846,-0.29,-0.3002,-0.3062,-0.3173,-0.3204,-0.3227,-0.3236,-0.3176,-0.3102,-0.3025,-0.2973,-0.2946,-0.2909,-0.292,-0.2897,-0.2861,-0.2806,-0.2866,-0.2865,-0.2864,-0.2863,0,-0.2544,-0.2566,-0.2611,-0.2662,-0.2715,-0.2773,-0.2857,-0.2902,-0.3036,-0.3106,-0.3187,-0.3204,-0.32,-0.3137,-0.306,-0.2983,-0.2908,-0.2929,-0.2939,-0.2837,-0.2799,-0.2724,-0.2869,-0.2857,-0.2858,-0.2858,-0.2859,-0.2859,-0.2458,-0.2459,-0.2507,-0.2544,-0.261,-0.2654,-0.2655,-0.2791,-0.2859,-0.2952,-0.3081,-0.3126,-0.3169,-0.3061,-0.2998,-0.2905,-0.2847,-0.2834,-0.2824,-0.279,-0.272,-0.2864,-0.2834,-0.2834,-0.2835,-0.2835,-0.2835,0,-0.2337,-0.2359,-0.2391,-0.2426,-0.2438,-0.251,-0.2598,-0.2589,-0.2635,-0.2821,-0.2896,-0.3044,-0.3011,-0.3024,-0.2963,-0.2854,-0.275,-0.277,-0.2715,-0.2662,-0.2797,-0.2788,-0.2748,-0.2748,-0.2748,-0.2748,-0.2748,-0.2748,-0.2275,-0.2252,-0.2268,-0.2223,-0.2253,-0.2208,-0.2215,-0.2248,-0.2345,-0.247,-0.2644,-0.2816,-0.286,-0.3103,-0.2995,-0.2856,-0.2743,-0.2661,-0.2627,-0.2755,-0.2761,-0.2766,-0.2758,-0.2712,-0.2712,-0.2452,-0.245,-0.2449]},{"header":{"parameterUnit":"m.s-1","parameterCategory":2,"la1":30.2991,"la2":30.254,"lo1":-89.0895,"lo2":-89.0444,"dy":0.0017,"dx":0.0017,"nx":28,"ny":28,"refTime":"2024-06-18T09:00:00:Z","depth":"0","parameterNumber":3,"parameterNumberName":"V-component_of_CURRENTS"},"data":[0,0,0,0,0,0,0,0,0,0,0,0,0,0,0,0,0,0,0,0,0,0,0,0,0,0,0,0,0,0,0,0,0,0,0,0,0,0,0,0,0,0,0,0,0,0,0,0,0,0,0,0,0,0,0,0,0,0,-0.0271,-0.027,0,-0.0161,-0.016,-0.0159,-0.0097,-0.0096,-0.0096,-0.0096,0.0028,0.0031,0.0034,0,0,0,0,0,0,0,0,0,0,0,0,0,-0.0364,-0.0363,-0.0271,-0.027,-0.0268,-0.0161,-0.016,-0.0158,-0.0097,-0.0096,-0.0096,-0.0096,0.0027,0.0031,0.0035,0,0,0,0,0,0,0,0,0,0,0,0,0,-0.0296,-0.0363,-0.0271,-0.0225,-0.022,-0.0162,-0.016,-0.0158,-0.0097,-0.0096,-0.0096,-0.0096,0.0026,0.0031,0.0035,0.006,0,0,0.005,0.0052,0,0,0,0,0,0,0,0,-0.03,-0.0292,-0.0233,-0.0228,-0.0222,-0.0143,-0.0147,-0.0084,-0.0097,-0.0143,-0.0096,-0.0096,-0.0028,-0.0019,0.0002,0.0065,0.0071,0.005,0.0053,0.0055,0.0056,0,0,0,0,0,0,0,-0.0305,-0.0296,-0.0227,-0.0232,-0.0225,-0.0188,-0.0179,-0.0134,-0.0088,-0.0139,-0.0134,-0.0123,-0.0025,-0.0003,0.0005,0.0073,0.005,0.0054,0.0057,0.0059,0.017,0.017,0,0,0,0,0,0,-0.0322,-0.0301,-0.023,-0.0224,-0.0262,-0.0187,-0.0176,-0.0168,-0.0088,-0.0076,-0.0123,-0.012,-0.0011,-0.0001,0.001,0.0051,0.0055,0.0059,0.0062,0.017,0.017,0.017,0,0,0,0,0,0,-0.0325,-0.0317,-0.0235,-0.026,-0.0247,-0.0186,-0.0177,-0.0166,-0.0144,-0.0076,-0.0064,-0.0113,-0.0011,0.0003,0.0053,0.0056,0.0062,0.0066,0.0169,0.017,0.017,0.0128,0,0,0,0,0,0,-0.0328,-0.0319,-0.0322,-0.0261,-0.0246,-0.0209,-0.0177,-0.0164,-0.0138,-0.0133,-0.0063,-0.0051,-0.0009,0.0046,0.0058,0.0062,0.007,0.0169,0.017,0.017,0.013,0.0127,0.0125,0,0,0,0,0,-0.0332,-0.0341,-0.0323,-0.0314,-0.0251,-0.021,-0.0199,-0.0154,-0.0138,-0.0132,-0.0079,-0.0054,0.0055,0.005,0.0064,0.007,0.0169,0.017,0.017,0.0131,0.0128,0.0125,0,0,0,0,0,0,-0.0384,-0.0333,-0.0313,-0.0306,-0.0264,-0.02,-0.0193,-0.0159,-0.0113,-0.0109,-0.0045,-0.0029,0.0014,0.0046,0.0039,0.0101,0.0113,0.0116,0.0079,0.0077,0.0074,0.0058,0.0074,0,0,0,0,0,-0.0398,-0.0391,-0.0333,-0.0329,-0.0312,-0.0254,-0.0232,-0.02,-0.0149,-0.0129,-0.0077,-0.0025,0.0026,0.0053,0.0098,0.0136,0.0176,0.0147,0.0144,0.0142,0.0138,0.0203,0.0207,0.0171,0.0171,0.0171,0,0,-0.0418,-0.0389,-0.0386,-0.034,-0.0307,-0.0286,-0.024,-0.0214,-0.0191,-0.0123,-0.0082,-0.0031,0.0033,0.0077,0.0098,0.0105,0.0174,0.0142,0.014,0.0137,0.0204,0.0208,0.0211,0.0171,0.0171,0.0171,0,0,-0.046,-0.0431,-0.044,-0.0407,-0.0361,-0.0318,-0.0314,-0.0251,-0.0218,-0.017,-0.0115,-0.006,0.001,0.0064,0.0099,0.011,0.0158,0.0117,0.0098,0.0162,0.0165,0.0169,0.0227,0.0236,0.0118,0.0118,0.0118,0,-0.049,-0.0487,-0.0436,-0.0431,-0.041,-0.0338,-0.0337,-0.0289,-0.0215,-0.0184,-0.0169,-0.0045,0.0006,0.0078,0.008,0.0106,0.0145,0.0104,0.0159,0.0163,0.0168,0.0226,0.0237,0.0116,0.0116,0.0117,0.0117,0,-0.0533,-0.0526,-0.0529,-0.0497,-0.0465,-0.0454,-0.038,-0.0344,-0.0295,-0.0239,-0.0163,-0.0081,-0.0007,0.0017,0.0054,0.0112,0.0131,0.0147,0.0164,0.0169,0.023,0.0242,0.0113,0.0114,0.0115,0.0115,0,0,-0.0608,-0.0571,-0.0569,-0.0566,-0.0499,-0.048,-0.0435,-0.0371,-0.0337,-0.0257,-0.0204,-0.011,-0.0058,-0.0016,0.0046,0.0102,0.0169,0.0129,0.0134,0.0183,0.0308,0.0378,0.0397,0.0194,0.0196,0.0197,0.0339,0,-0.0658,-0.0681,-0.063,-0.0632,-0.0637,-0.0549,-0.0512,-0.044,-0.0364,-0.0292,-0.0187,-0.0121,-0.0071,-0.0037,0.0033,0.0139,0.0198,0.0129,0.0298,0.0303,0.0363,0.0413,0.0491,0.0629,0.035,0.0353,0.0354,0,-0.0713,-0.0722,-0.0746,-0.0705,-0.0696,-0.0677,-0.0599,-0.0554,-0.0427,-0.0365,-0.0265,-0.018,-0.0066,-0.0039,0.0151,0.0105,0.0194,0.0273,0.0281,0.0368,0.0396,0.058,0.0661,0.0856,0.0373,0.0371,0.037,0,-0.0805,-0.0792,-0.0819,-0.0807,-0.0752,-0.0736,-0.0697,-0.0586,-0.0543,-0.0414,-0.0363,-0.0211,-0.0129,0.0006,0.0185,0.0163,0.0394,0.0387,0.0536,0.0542,0.0654,0.0667,0.0943,0.0505,0.0504,0.0504,0.0503,0,-0.0879,-0.0893,-0.087,-0.0885,-0.0902,-0.0826,-0.0807,-0.0734,-0.0628,-0.0567,-0.0416,-0.0324,-0.0117,0.0049,0.0187,0.0422,0.0404,0.0549,0.0592,0.0642,0.0652,0.0861,0.0923,0.0509,0.0508,0.0507,0.0506,0,-0.0966,-0.0952,-0.0984,-0.0958,-0.0949,-0.0964,-0.09,-0.0878,-0.076,-0.0671,-0.0637,-0.0403,-0.0165,0.0057,0.0305,0.0436,0.0766,0.071,0.0757,0.0803,0.1105,0.1159,0.1435,0.1536,0.0895,0.0898,0.09,0,-0.1012,-0.1042,-0.1057,-0.1089,-0.1081,-0.1083,-0.1077,-0.0968,-0.0925,-0.0707,-0.0666,-0.0412,-0.0195,0.0223,0.0511,0.0801,0.091,0.1009,0.098,0.116,0.1252,0.1267,0.133,0.1114,0.1118,0.1121,0.1124,0,-0.1099,-0.1104,-0.1138,-0.121,-0.1231,-0.1238,-0.121,-0.1196,-0.1038,-0.0914,-0.0694,-0.0501,-0.0037,0.0387,0.0777,0.0933,0.117,0.1081,0.1272,0.1461,0.1492,0.1595,0.097,0.1152,0.1149,0.1147,0.1146,0.1145,-0.1159,-0.1216,-0.1266,-0.1329,-0.1361,-0.1381,-0.1385,-0.1305,-0.1208,-0.0984,-0.0748,-0.0394,0.0269,0.0865,0.1061,0.1516,0.1414,0.1625,0.1679,0.1679,0.1781,0.1213,0.1435,0.1433,0.1432,0.1432,0.1431,0,-0.1235,-0.1298,-0.1376,-0.1445,-0.1502,-0.1479,-0.1457,-0.1417,-0.1296,-0.1001,-0.0726,0.0042,0.067,0.122,0.1898,0.2114,0.2126,0.2207,0.2264,0.2299,0.1828,0.1844,0.2159,0.2159,0.2159,0.2158,0.2158,0.2158,-0.128,-0.1382,-0.1428,-0.1549,-0.1594,-0.1632,-0.1624,-0.1508,-0.13,-0.0827,-0.0366,0.0032,0.0885,0.2068,0.2659,0.2673,0.284,0.2817,0.2887,0.2584,0.2534,0.2485,0.252,0.2972,0.2973,0.335,0.3354,0.3357]}],[{"header":{"parameterUnit":"m.s-1","parameterCategory":2,"la1":30.2991,"la2":30.254,"lo1":-89.0895,"lo2":-89.0444,"dy":0.0017,"dx":0.0017,"nx":28,"ny":28,"refTime":"2024-06-18T09:00:00:Z","depth":"2","parameterNumber":2,"parameterNumberName":"U-component_of_CURRENTS"},"data":[0,0,0,0,0,0,0,0,0,0,0,0,0,0,0,0,0,0,0,0,0,0,0,0,0,0,0,0,0,0,0,0,0,0,0,0,0,0,0,0,0,0,0,0,0,0,0,0,0,0,0,0,0,0,0,0,0,0,-0.267,-0.267,0,-0.2665,-0.2665,-0.2664,-0.2628,-0.2627,-0.2627,-0.2626,-0.2567,-0.2566,-0.2565,0,0,0,0,0,0,0,0,0,0,0,0,0,-0.2605,-0.2606,-0.267,-0.267,-0.2671,-0.2665,-0.2665,-0.2664,-0.2628,-0.2627,-0.2627,-0.2626,-0.2568,-0.2566,-0.2565,0,0,0,0,0,0,0,0,0,0,0,0,0,-0.2615,-0.2607,-0.267,-0.2655,-0.2654,-0.2665,-0.2665,-0.2664,-0.2628,-0.2627,-0.2626,-0.2626,-0.2568,-0.2566,-0.2565,-0.2568,0,0,-0.2559,-0.2559,0,0,0,0,0,0,0,0,-0.2615,-0.2617,-0.2657,-0.2656,-0.2655,-0.2651,-0.2621,-0.2631,-0.2628,-0.2633,-0.2626,-0.2625,-0.2594,-0.259,-0.2584,-0.2565,-0.2563,-0.2559,-0.2558,-0.2558,-0.2557,0,0,0,0,0,0,0,-0.2614,-0.2617,-0.2663,-0.2658,-0.2657,-0.2635,-0.2636,-0.2622,-0.2612,-0.2632,-0.2631,-0.2638,-0.2592,-0.2586,-0.2583,-0.2562,-0.2559,-0.2558,-0.2557,-0.2556,-0.2556,-0.2557,0,0,0,0,0,0,-0.2628,-0.2617,-0.2663,-0.2663,-0.2639,-0.2637,-0.2638,-0.2649,-0.2614,-0.2609,-0.2639,-0.2637,-0.2589,-0.2585,-0.258,-0.2604,-0.2558,-0.2556,-0.2555,-0.2555,-0.2556,-0.2557,0,0,0,0,0,0,-0.2627,-0.2632,-0.2664,-0.2643,-0.2646,-0.264,-0.2652,-0.2649,-0.2646,-0.262,-0.2614,-0.264,-0.2589,-0.2583,-0.2577,-0.2601,-0.2555,-0.2554,-0.2554,-0.2555,-0.2557,-0.2637,0,0,0,0,0,0,-0.2625,-0.2632,-0.2639,-0.2645,-0.2648,-0.2684,-0.2653,-0.265,-0.2654,-0.2651,-0.2619,-0.2613,-0.2588,-0.258,-0.2575,-0.2597,-0.2552,-0.2553,-0.2555,-0.2556,-0.2633,-0.2641,-0.2648,0,0,0,0,0,-0.2623,-0.2641,-0.264,-0.2645,-0.2661,-0.2686,-0.2686,-0.2674,-0.2655,-0.2665,-0.264,-0.2614,-0.2589,-0.2579,-0.2574,-0.2596,-0.2552,-0.2554,-0.2556,-0.263,-0.264,-0.2648,0,0,0,0,0,0,-0.2613,-0.264,-0.2638,-0.2663,-0.268,-0.2682,-0.2688,-0.2681,-0.2669,-0.2659,-0.2625,-0.2618,-0.2622,-0.2599,-0.2589,-0.2602,-0.2567,-0.2568,-0.2625,-0.2634,-0.2641,-0.2644,-0.2551,0,0,0,0,0,-0.2618,-0.2637,-0.2661,-0.2678,-0.269,-0.2689,-0.2695,-0.2692,-0.2686,-0.268,-0.2659,-0.2637,-0.2628,-0.2622,-0.2607,-0.2614,-0.2592,-0.2625,-0.2633,-0.2639,-0.2638,-0.2625,-0.2632,-0.2565,-0.2565,-0.2565,0,0,-0.2616,-0.2635,-0.2644,-0.2677,-0.2684,-0.2713,-0.269,-0.2708,-0.2726,-0.2676,-0.2682,-0.2661,-0.2635,-0.2644,-0.2644,-0.2627,-0.2651,-0.2642,-0.2648,-0.2643,-0.2628,-0.2635,-0.2641,-0.2567,-0.2566,-0.2566,0,0,-0.2632,-0.2645,-0.2669,-0.2694,-0.2721,-0.2728,-0.2739,-0.2749,-0.2748,-0.2758,-0.2727,-0.2721,-0.2705,-0.2695,-0.2687,-0.2726,-0.269,-0.2724,-0.2765,-0.2754,-0.2759,-0.2763,-0.2761,-0.2765,-0.2729,-0.2729,-0.2729,0,-0.2627,-0.2665,-0.268,-0.2717,-0.2738,-0.274,-0.2774,-0.2782,-0.2786,-0.279,-0.2771,-0.2752,-0.273,-0.2742,-0.2756,-0.2744,-0.2731,-0.2734,-0.2763,-0.2767,-0.277,-0.2767,-0.2769,-0.2733,-0.2733,-0.2732,-0.2732,0,-0.2664,-0.2699,-0.2718,-0.2765,-0.2792,-0.2821,-0.2846,-0.2861,-0.2856,-0.2858,-0.2864,-0.2834,-0.2821,-0.2821,-0.28,-0.2817,-0.2801,-0.2774,-0.2742,-0.2782,-0.2776,-0.2777,-0.2739,-0.2737,-0.2736,-0.2735,0,0,-0.2638,-0.2726,-0.2731,-0.2763,-0.282,-0.2841,-0.2886,-0.2921,-0.2939,-0.2937,-0.2953,-0.2941,-0.2916,-0.2904,-0.2878,-0.2871,-0.2889,-0.2836,-0.2834,-0.2837,-0.2872,-0.2861,-0.2861,-0.2866,-0.2867,-0.2867,-0.2866,0,-0.2658,-0.2731,-0.2774,-0.2835,-0.2873,-0.2906,-0.2947,-0.2978,-0.2989,-0.3006,-0.2987,-0.2984,-0.2952,-0.294,-0.2934,-0.2896,-0.2893,-0.2891,-0.283,-0.2828,-0.2815,-0.2863,-0.2602,-0.2579,-0.2867,-0.2867,-0.2867,0,-0.267,-0.2722,-0.2789,-0.2872,-0.2891,-0.2924,-0.2978,-0.3015,-0.3051,-0.306,-0.3063,-0.3045,-0.3042,-0.2998,-0.2966,-0.2967,-0.2927,-0.2896,-0.2894,-0.2854,-0.282,-0.2581,-0.257,-0.2869,-0.2869,-0.2868,-0.2868,0,-0.2627,-0.2726,-0.2775,-0.2805,-0.2901,-0.2926,-0.2965,-0.3016,-0.3048,-0.308,-0.3101,-0.3095,-0.3083,-0.3043,-0.2991,-0.2976,-0.295,-0.2919,-0.2875,-0.2874,-0.2624,-0.2601,-0.2892,-0.2892,-0.2892,-0.2892,-0.2892,0,-0.2625,-0.2662,-0.2754,-0.278,-0.2826,-0.2899,-0.2941,-0.2983,-0.3046,-0.3087,-0.3109,-0.3128,-0.309,-0.3074,-0.3018,-0.2963,-0.2972,-0.2892,-0.2875,-0.2648,-0.2629,-0.2848,-0.2843,-0.2891,-0.2891,-0.2892,-0.2892,0,-0.2562,-0.2634,-0.2682,-0.2778,-0.2805,-0.2823,-0.2917,-0.2958,-0.3024,-0.3077,-0.309,-0.3147,-0.3134,-0.31,-0.304,-0.2995,-0.294,-0.2911,-0.2663,-0.2618,-0.2866,-0.2865,-0.287,-0.287,-0.2869,-0.2869,-0.2869,0,-0.2536,-0.2555,-0.2642,-0.2671,-0.2709,-0.2761,-0.2813,-0.2914,-0.2972,-0.3083,-0.3112,-0.3137,-0.3137,-0.3079,-0.2957,-0.2868,-0.2932,-0.2628,-0.256,-0.2882,-0.2865,-0.2864,-0.2864,-0.2254,-0.2249,-0.2245,-0.2242,0,-0.2462,-0.2484,-0.2528,-0.2578,-0.2631,-0.2687,-0.277,-0.2813,-0.2945,-0.3004,-0.3083,-0.3092,-0.3047,-0.2842,-0.2746,-0.2653,-0.2627,-0.2545,-0.291,-0.2329,-0.2309,-0.2291,-0.2308,-0.2204,-0.2207,-0.221,-0.2212,-0.2214,-0.2378,-0.2379,-0.2426,-0.2462,-0.2527,-0.2569,-0.2569,-0.266,-0.2711,-0.2713,-0.2894,-0.2797,-0.2785,-0.2481,-0.2378,-0.2263,-0.243,-0.2311,-0.2319,-0.2333,-0.2292,-0.2275,-0.2155,-0.2158,-0.2161,-0.2164,-0.2166,0,-0.2243,-0.2281,-0.2311,-0.2345,-0.2335,-0.2428,-0.2511,-0.2424,-0.2401,-0.2446,-0.2448,-0.219,-0.2099,-0.2082,-0.1845,-0.185,-0.1769,-0.1789,-0.1663,-0.1702,-0.1736,-0.166,-0.1358,-0.1355,-0.1354,-0.1352,0,0,-0.2177,-0.2146,-0.216,-0.2103,-0.2147,-0.2052,-0.2055,-0.1949,-0.1905,-0.1741,-0.1695,-0.1864,-0.1984,-0.164,-0.1594,-0.1439,-0.154,-0.1362,-0.2001,-0.1885,-0.1916,-0.2025,-0.1952,0,0,0,0,0]},{"header":{"parameterUnit":"m.s-1","parameterCategory":2,"la1":30.2991,"la2":30.254,"lo1":-89.0895,"lo2":-89.0444,"dy":0.0017,"dx":0.0017,"nx":28,"ny":28,"refTime":"2024-06-18T09:00:00:Z","depth":"2","parameterNumber":3,"parameterNumberName":"V-component_of_CURRENTS"},"data":[0,0,0,0,0,0,0,0,0,0,0,0,0,0,0,0,0,0,0,0,0,0,0,0,0,0,0,0,0,0,0,0,0,0,0,0,0,0,0,0,0,0,0,0,0,0,0,0,0,0,0,0,0,0,0,0,0,0,-0.027,-0.0269,0,-0.0162,-0.0161,-0.0159,-0.0098,-0.0098,-0.0098,-0.0098,0.0025,0.0028,0.0031,0,0,0,0,0,0,0,0,0,0,0,0,0,-0.0361,-0.036,-0.027,-0.0269,-0.0267,-0.0162,-0.0161,-0.0159,-0.0098,-0.0098,-0.0098,-0.0098,0.0024,0.0028,0.0031,0,0,0,0,0,0,0,0,0,0,0,0,0,-0.0294,-0.036,-0.027,-0.0225,-0.0219,-0.0162,-0.016,-0.0159,-0.0098,-0.0098,-0.0098,-0.0098,0.0023,0.0027,0.0032,0.0056,0,0,0.0046,0.0048,0,0,0,0,0,0,0,0,-0.0298,-0.0291,-0.0233,-0.0228,-0.0222,-0.0144,-0.0148,-0.0086,-0.0098,-0.0144,-0.0098,-0.0097,-0.0031,-0.0021,-0.0001,0.0061,0.0067,0.0047,0.0049,0.0051,0.0053,0,0,0,0,0,0,0,-0.0303,-0.0294,-0.0227,-0.0231,-0.0225,-0.0188,-0.0179,-0.0135,-0.0089,-0.014,-0.0135,-0.0124,-0.0027,-0.0006,0.0002,0.0068,0.0046,0.0051,0.0053,0.0055,0.0164,0.0164,0,0,0,0,0,0,-0.032,-0.0299,-0.023,-0.0223,-0.026,-0.0187,-0.0177,-0.0169,-0.009,-0.0078,-0.0124,-0.0122,-0.0014,-0.0003,0.0007,0.0048,0.0051,0.0056,0.0058,0.0164,0.0164,0.0164,0,0,0,0,0,0,-0.0323,-0.0315,-0.0234,-0.0259,-0.0246,-0.0186,-0.0177,-0.0167,-0.0145,-0.0078,-0.0066,-0.0114,-0.0013,0.0,0.0049,0.0052,0.0058,0.0062,0.0164,0.0164,0.0164,0.0124,0,0,0,0,0,0,-0.0326,-0.0317,-0.032,-0.026,-0.0245,-0.0209,-0.0177,-0.0165,-0.0139,-0.0134,-0.0065,-0.0054,-0.0012,0.0042,0.0054,0.0059,0.0066,0.0164,0.0164,0.0164,0.0126,0.0123,0.0121,0,0,0,0,0,-0.0329,-0.0338,-0.0321,-0.0312,-0.0251,-0.021,-0.0199,-0.0154,-0.0139,-0.0134,-0.0081,-0.0056,0.0051,0.0046,0.006,0.0066,0.0164,0.0164,0.0164,0.0127,0.0124,0.0121,0,0,0,0,0,0,-0.0381,-0.0331,-0.0311,-0.0304,-0.0263,-0.02,-0.0193,-0.016,-0.0114,-0.0111,-0.0048,-0.0032,0.0011,0.0042,0.0035,0.0097,0.0109,0.0112,0.0075,0.0073,0.0071,0.0055,0.007,0,0,0,0,0,-0.0394,-0.0388,-0.0331,-0.0327,-0.0311,-0.0253,-0.0232,-0.02,-0.015,-0.013,-0.0079,-0.0027,0.0022,0.005,0.0094,0.0131,0.017,0.0142,0.0139,0.0137,0.0133,0.0198,0.0201,0.0165,0.0165,0.0165,0,0,-0.0415,-0.0386,-0.0383,-0.0338,-0.0305,-0.0285,-0.024,-0.0214,-0.0191,-0.0124,-0.0084,-0.0034,0.003,0.0073,0.0094,0.0101,0.0169,0.0137,0.0135,0.0132,0.0199,0.0202,0.0206,0.0165,0.0165,0.0165,0,0,-0.0456,-0.0427,-0.0436,-0.0404,-0.0358,-0.0316,-0.0312,-0.025,-0.0217,-0.017,-0.0116,-0.0061,0.0007,0.0061,0.0095,0.0107,0.0153,0.0113,0.0095,0.0158,0.0161,0.0165,0.0222,0.0231,0.0114,0.0114,0.0114,0,-0.0485,-0.0483,-0.0433,-0.0427,-0.0406,-0.0336,-0.0334,-0.0287,-0.0215,-0.0184,-0.0168,-0.0046,0.0003,0.0075,0.0077,0.0103,0.0141,0.01,0.0155,0.016,0.0164,0.0221,0.0232,0.0112,0.0113,0.0113,0.0113,0,-0.0528,-0.0521,-0.0524,-0.0491,-0.046,-0.0449,-0.0377,-0.0341,-0.0293,-0.0237,-0.0162,-0.0081,-0.0009,0.0016,0.0051,0.0109,0.0127,0.0143,0.0161,0.0165,0.0225,0.0237,0.011,0.011,0.0111,0.0111,0,0,-0.0601,-0.0565,-0.0563,-0.056,-0.0494,-0.0475,-0.043,-0.0367,-0.0334,-0.0255,-0.0202,-0.0109,-0.0058,-0.0017,0.0044,0.0101,0.0167,0.0127,0.0131,0.018,0.0303,0.0369,0.0389,0.0192,0.0194,0.0195,0.0333,0,-0.0651,-0.0673,-0.0623,-0.0625,-0.063,-0.0543,-0.0506,-0.0435,-0.036,-0.029,-0.0185,-0.012,-0.007,-0.0037,0.0032,0.0137,0.0195,0.0128,0.0294,0.0299,0.0355,0.0404,0.0305,0.0425,0.0345,0.0347,0.0348,0,-0.0705,-0.0714,-0.0737,-0.0697,-0.0688,-0.0669,-0.0593,-0.0548,-0.0423,-0.0362,-0.0263,-0.0178,-0.0066,-0.0039,0.0149,0.0104,0.0192,0.027,0.0277,0.036,0.0387,0.0408,0.045,0.0368,0.0367,0.0365,0.0364,0,-0.0796,-0.0783,-0.081,-0.0798,-0.0744,-0.0728,-0.069,-0.0581,-0.0538,-0.0411,-0.036,-0.0209,-0.0129,0.0005,0.0182,0.0161,0.0388,0.0381,0.0526,0.0531,0.0492,0.0492,0.0499,0.0498,0.0498,0.0498,0.0497,0,-0.0869,-0.0884,-0.086,-0.0876,-0.0893,-0.0818,-0.08,-0.0728,-0.0623,-0.0564,-0.0414,-0.0323,-0.0118,0.0046,0.0183,0.0414,0.0398,0.0539,0.0581,0.0477,0.0474,0.0453,0.0446,0.0503,0.0502,0.0501,0.05,0,-0.0956,-0.0941,-0.0974,-0.0948,-0.094,-0.0955,-0.0892,-0.0872,-0.0755,-0.0669,-0.0635,-0.0404,-0.017,0.005,0.0295,0.0425,0.0621,0.0696,0.0565,0.059,0.0715,0.0704,0.0868,0.0871,0.0874,0.0877,0.0879,0,-0.1001,-0.1031,-0.1046,-0.1078,-0.1071,-0.1073,-0.1069,-0.0961,-0.0919,-0.0706,-0.0667,-0.0417,-0.0208,0.0204,0.0447,0.0723,0.0726,0.0801,0.0751,0.0733,0.0757,0.0741,0.0727,0.0676,0.0676,0.0676,0.0677,0,-0.1088,-0.1094,-0.1127,-0.1199,-0.1221,-0.1229,-0.1202,-0.1189,-0.1034,-0.0914,-0.0701,-0.0516,-0.0099,0.0212,0.0582,0.0716,0.0753,0.082,0.0848,0.0607,0.0567,0.0586,0.0575,0.0679,0.0679,0.0679,0.0679,0.0679,-0.1148,-0.1205,-0.1255,-0.1317,-0.1351,-0.1371,-0.1376,-0.1299,-0.1208,-0.1009,-0.0791,-0.0495,-0.0141,0.0356,0.0618,0.0828,0.0839,0.0868,0.0861,0.0855,0.0817,0.0786,0.0932,0.0933,0.0934,0.0935,0.0936,0,-0.1219,-0.1287,-0.1364,-0.1434,-0.1485,-0.1469,-0.1449,-0.1403,-0.1289,-0.1077,-0.0842,-0.0465,-0.0081,0.0274,0.0608,0.0855,0.0783,0.0882,0.0738,0.0734,0.0731,0.0681,0.0764,0.0764,0.0765,0.0765,0,0,-0.1263,-0.1361,-0.1406,-0.1524,-0.1575,-0.1601,-0.1593,-0.148,-0.1324,-0.1104,-0.089,-0.058,-0.0103,0.0111,0.0417,0.0596,0.0585,0.0589,0.0695,0.0481,0.0475,0.0691,0.0608,0,0,0,0,0]}],[{"header":{"parameterUnit":"m.s-1","parameterCategory":2,"la1":30.2991,"la2":30.254,"lo1":-89.0895,"lo2":-89.0444,"dy":0.0017,"dx":0.0017,"nx":28,"ny":28,"refTime":"2024-06-18T09:00:00:Z","depth":"4","parameterNumber":2,"parameterNumberName":"U-component_of_CURRENTS"},"data":[0,0,0,0,0,0,0,0,0,0,0,0,0,0,0,0,0,0,0,0,0,0,0,0,0,0,0,0,0,0,0,0,0,0,0,0,0,0,0,0,0,0,0,0,0,0,0,0,0,0,0,0,0,0,0,0,0,0,-0.1636,-0.1636,0,-0.1697,-0.1697,-0.1698,-0.1733,-0.1733,-0.1734,-0.1734,-0.1774,-0.1775,-0.1776,0,0,0,0,0,0,0,0,0,0,0,0,0,-0.153,-0.1532,-0.1635,-0.1636,-0.1638,-0.1697,-0.1697,-0.1698,-0.1733,-0.1733,-0.1734,-0.1734,-0.1774,-0.1775,-0.1776,0,0,0,0,0,0,0,0,0,0,0,0,0,-0.1579,-0.1533,-0.1635,-0.1664,-0.1668,-0.1696,-0.1697,-0.1698,-0.1733,-0.1733,-0.1734,-0.1734,-0.1774,-0.1775,-0.1776,-0.177,0,0,-0.1779,-0.1779,0,0,0,0,0,0,0,0,-0.1577,-0.1583,-0.1659,-0.1662,-0.1666,-0.171,-0.1675,-0.1722,-0.1732,-0.1705,-0.1734,-0.1735,-0.1752,-0.1755,-0.1761,-0.1772,-0.1774,-0.1779,-0.178,-0.178,-0.178,0,0,0,0,0,0,0,-0.1573,-0.158,-0.1657,-0.166,-0.1665,-0.1668,-0.1675,-0.1684,-0.1722,-0.1707,-0.1711,-0.1722,-0.1754,-0.176,-0.1763,-0.1774,-0.1779,-0.178,-0.1781,-0.1781,-0.1858,-0.186,0,0,0,0,0,0,-0.1572,-0.1577,-0.1655,-0.1659,-0.1625,-0.167,-0.1678,-0.1693,-0.1722,-0.1728,-0.1721,-0.1723,-0.1758,-0.1761,-0.1764,-0.1842,-0.178,-0.1781,-0.1782,-0.1857,-0.1859,-0.186,0,0,0,0,0,0,-0.157,-0.1579,-0.1652,-0.1621,-0.1631,-0.1671,-0.1688,-0.1694,-0.1732,-0.1734,-0.1739,-0.1756,-0.1759,-0.1763,-0.1802,-0.1841,-0.1782,-0.1783,-0.1855,-0.1857,-0.1859,-0.1945,0,0,0,0,0,0,-0.1566,-0.1577,-0.16,-0.1622,-0.1633,-0.1694,-0.1688,-0.1695,-0.1737,-0.1741,-0.1765,-0.1767,-0.176,-0.1801,-0.1804,-0.1841,-0.1783,-0.1853,-0.1856,-0.1859,-0.1941,-0.195,-0.1958,0,0,0,0,0,-0.1562,-0.1588,-0.1601,-0.1611,-0.1659,-0.1696,-0.1703,-0.173,-0.1739,-0.1764,-0.1781,-0.1768,-0.1819,-0.1803,-0.1806,-0.1845,-0.1852,-0.1855,-0.1858,-0.1937,-0.1948,-0.1958,0,0,0,0,0,0,-0.1554,-0.1595,-0.1609,-0.1647,-0.1682,-0.1704,-0.1733,-0.1748,-0.1781,-0.1792,-0.1788,-0.1793,-0.184,-0.1829,-0.1812,-0.1873,-0.1833,-0.1837,-0.1892,-0.1902,-0.1911,-0.1904,-0.1784,0,0,0,0,0,-0.1562,-0.1595,-0.163,-0.1664,-0.1684,-0.1714,-0.1737,-0.1758,-0.1784,-0.1801,-0.1818,-0.1833,-0.1849,-0.1867,-0.1876,-0.1913,-0.1889,-0.1938,-0.1947,-0.1955,-0.1951,-0.1946,-0.1954,-0.1871,-0.1871,-0.1871,0,0,-0.1568,-0.1596,-0.1615,-0.1665,-0.1693,-0.1734,-0.173,-0.1778,-0.1817,-0.1799,-0.1862,-0.1866,-0.1865,-0.1907,-0.1927,-0.1909,-0.197,-0.1959,-0.1966,-0.1957,-0.1951,-0.1959,-0.1966,-0.1873,-0.1872,-0.1872,0,0,-0.1589,-0.1624,-0.1657,-0.1692,-0.1747,-0.1767,-0.1789,-0.1833,-0.1863,-0.1916,-0.1911,-0.1939,-0.1972,-0.1977,-0.1982,-0.2043,-0.2013,-0.2053,-0.2099,-0.2096,-0.2103,-0.2108,-0.2102,-0.2106,-0.2062,-0.2062,-0.2062,0,-0.1596,-0.1643,-0.1673,-0.1716,-0.1753,-0.1787,-0.1833,-0.1867,-0.1921,-0.1946,-0.195,-0.1998,-0.2002,-0.2039,-0.2064,-0.2063,-0.2054,-0.2062,-0.2107,-0.2112,-0.2116,-0.2108,-0.2111,-0.2066,-0.2066,-0.2065,-0.2065,0,-0.1632,-0.1686,-0.1711,-0.1777,-0.1819,-0.1867,-0.1917,-0.1965,-0.2003,-0.2029,-0.2086,-0.209,-0.2114,-0.2127,-0.2117,-0.2156,-0.2138,-0.2116,-0.208,-0.213,-0.2118,-0.212,-0.2073,-0.2071,-0.207,-0.2069,0,0,-0.1603,-0.1715,-0.1728,-0.1773,-0.1859,-0.1893,-0.1969,-0.2034,-0.2079,-0.2129,-0.2179,-0.221,-0.2211,-0.2214,-0.2208,-0.2211,-0.224,-0.2186,-0.2183,-0.2178,-0.2237,-0.2112,-0.2102,-0.2231,-0.2231,-0.2232,-0.2222,0,-0.1625,-0.1712,-0.1768,-0.1857,-0.1904,-0.1971,-0.2034,-0.2099,-0.2149,-0.2205,-0.2222,-0.2262,-0.2245,-0.2262,-0.2267,-0.2245,-0.2248,-0.2245,-0.2189,-0.2187,-0.2069,-0.21,-0.2234,-0.2223,-0.2223,-0.2224,-0.2224,0,-0.1632,-0.1695,-0.1785,-0.1901,-0.1929,-0.1988,-0.2088,-0.215,-0.223,-0.227,-0.2312,-0.2324,-0.2352,-0.2321,-0.2313,-0.2316,-0.2284,-0.226,-0.2258,-0.2108,-0.2065,-0.2159,-0.2227,-0.2226,-0.2226,-0.2226,-0.2226,0,-0.1574,-0.1702,-0.1776,-0.1817,-0.1949,-0.2005,-0.2073,-0.2166,-0.2218,-0.2305,-0.2344,-0.2379,-0.2395,-0.2372,-0.2335,-0.2331,-0.2308,-0.229,-0.2147,-0.2138,-0.2216,-0.221,-0.2271,-0.2271,-0.2271,-0.2271,-0.2271,0,-0.1554,-0.1617,-0.1759,-0.1798,-0.1884,-0.1985,-0.2071,-0.2144,-0.2241,-0.2291,-0.2365,-0.2386,-0.2408,-0.24,-0.2357,-0.2254,-0.2324,-0.215,-0.2123,-0.2255,-0.2253,-0.2218,-0.2212,-0.227,-0.2271,-0.2271,-0.2271,0,-0.1469,-0.1573,-0.1657,-0.1807,-0.1858,-0.1911,-0.206,-0.2112,-0.2221,-0.2285,-0.2315,-0.2399,-0.2382,-0.2381,-0.2341,-0.2262,-0.2188,-0.2133,-0.2283,-0.2265,-0.2019,-0.2018,-0.197,-0.1966,-0.1962,-0.1959,-0.1956,0,-0.143,-0.1467,-0.163,-0.1683,-0.1755,-0.1859,-0.1929,-0.2075,-0.2126,-0.2263,-0.2275,-0.2319,-0.2346,-0.2191,-0.2211,-0.2124,-0.209,-0.2054,-0.2024,-0.2007,-0.1987,-0.1992,-0.1996,-0.195,-0.1949,-0.1948,-0.1947,0,-0.1339,-0.1406,-0.1476,-0.1575,-0.1665,-0.1749,-0.1859,-0.1882,-0.2034,-0.2171,-0.2164,-0.2146,-0.2129,-0.2089,-0.204,-0.1977,-0.2081,-0.2013,-0.202,-0.1992,-0.1982,-0.1966,-0.1975,-0.1933,-0.1935,-0.1937,-0.1937,0,-0.1259,-0.1276,-0.1367,-0.1439,-0.1545,-0.1581,-0.167,-0.1736,-0.1804,-0.1976,-0.1967,-0.2017,-0.2106,-0.2012,-0.1965,-0.1899,-0.186,-0.1796,-0.1814,-0.1829,-0.1785,-0.1751,-0.1603,0,0,0,0,0,-0.1165,-0.1168,-0.1224,-0.1293,-0.1389,-0.1436,-0.1594,-0.1689,-0.1853,-0.1801,-0.1877,-0.1853,-0.1801,-0.1834,-0.1726,-0.1879,-0.1853,-0.1748,-0.1787,-0.1859,-0.1874,-0.1834,0,0,0,0,0,0,-0.1103,-0.1145,-0.1163,-0.1139,-0.1151,-0.1232,-0.1314,-0.1439,-0.1431,-0.1607,-0.1583,-0.1728,-0.1694,-0.1804,-0.1673,-0.1682,-0.1669,-0.1801,-0.1796,-0.185,-0.1864,-0.1877,-0.184,0,0,0,0,0]},{"header":{"parameterUnit":"m.s-1","parameterCategory":2,"la1":30.2991,"la2":30.254,"lo1":-89.0895,"lo2":-89.0444,"dy":0.0017,"dx":0.0017,"nx":28,"ny":28,"refTime":"2024-06-18T09:00:00:Z","depth":"4","parameterNumber":3,"parameterNumberName":"V-component_of_CURRENTS"},"data":[0,0,0,0,0,0,0,0,0,0,0,0,0,0,0,0,0,0,0,0,0,0,0,0,0,0,0,0,0,0,0,0,0,0,0,0,0,0,0,0,0,0,0,0,0,0,0,0,0,0,0,0,0,0,0,0,0,0,-0.0209,-0.0209,0,-0.0142,-0.0141,-0.0141,-0.01,-0.01,-0.01,-0.01,-0.001,-0.0007,-0.0005,0,0,0,0,0,0,0,0,0,0,0,0,0,-0.0254,-0.0253,-0.0209,-0.0209,-0.0208,-0.0142,-0.0141,-0.014,-0.01,-0.01,-0.01,-0.01,-0.001,-0.0008,-0.0005,0,0,0,0,0,0,0,0,0,0,0,0,0,-0.0215,-0.0253,-0.021,-0.0181,-0.0177,-0.0143,-0.0141,-0.014,-0.01,-0.01,-0.01,-0.01,-0.0011,-0.0008,-0.0004,0.0013,0,0,0.0006,0.0008,0,0,0,0,0,0,0,0,-0.0217,-0.0213,-0.0186,-0.0182,-0.0179,-0.013,-0.0124,-0.0088,-0.01,-0.0129,-0.01,-0.01,-0.0048,-0.0042,-0.0029,0.0018,0.0021,0.0006,0.0008,0.001,0.0011,0,0,0,0,0,0,0,-0.022,-0.0215,-0.0182,-0.0185,-0.0181,-0.0154,-0.0149,-0.0117,-0.0089,-0.0126,-0.0123,-0.0117,-0.0046,-0.0032,-0.0026,0.0023,0.0006,0.0009,0.0011,0.0013,0.0091,0.0091,0,0,0,0,0,0,-0.0232,-0.0218,-0.0184,-0.018,-0.0199,-0.0154,-0.0148,-0.0145,-0.009,-0.0082,-0.0117,-0.0115,-0.0038,-0.003,-0.0023,0.001,0.001,0.0013,0.0015,0.0091,0.0091,0.0091,0,0,0,0,0,0,-0.0234,-0.023,-0.0187,-0.0198,-0.0191,-0.0154,-0.0151,-0.0144,-0.0131,-0.0084,-0.0075,-0.0111,-0.0038,-0.0028,0.0008,0.0013,0.0015,0.0018,0.0091,0.0091,0.0091,0.007,0,0,0,0,0,0,-0.0235,-0.0231,-0.0236,-0.0199,-0.0191,-0.0172,-0.0151,-0.0143,-0.0127,-0.0124,-0.0076,-0.0067,-0.0037,0.0002,0.0011,0.0018,0.002,0.0091,0.0091,0.0091,0.0071,0.0069,0.0068,0,0,0,0,0,-0.0237,-0.0246,-0.0237,-0.0233,-0.0198,-0.0173,-0.0166,-0.0138,-0.0128,-0.0125,-0.0087,-0.0068,0.0009,0.0005,0.0016,0.0024,0.0091,0.0091,0.0091,0.0071,0.0069,0.0068,0,0,0,0,0,0,-0.0269,-0.0242,-0.0231,-0.0232,-0.0207,-0.0166,-0.0164,-0.0142,-0.011,-0.0108,-0.0063,-0.0051,-0.0019,0.0003,-0.0002,0.0045,0.0051,0.0053,0.0032,0.0031,0.003,0.0017,0.0023,0,0,0,0,0,-0.0279,-0.028,-0.0246,-0.0248,-0.0238,-0.0202,-0.0189,-0.0169,-0.0135,-0.0122,-0.0086,-0.0049,-0.0011,0.0009,0.0041,0.0069,0.0098,0.0079,0.0077,0.0076,0.0072,0.0126,0.013,0.0091,0.0091,0.0091,0,0,-0.0294,-0.0279,-0.028,-0.0255,-0.0236,-0.0224,-0.0194,-0.0179,-0.0164,-0.0117,-0.0089,-0.0052,-0.0006,0.0027,0.0043,0.0048,0.0101,0.0076,0.0075,0.0072,0.0127,0.0131,0.0134,0.0092,0.0091,0.0091,0,0,-0.0322,-0.031,-0.0318,-0.0299,-0.0273,-0.0246,-0.0244,-0.0204,-0.0182,-0.015,-0.0111,-0.0069,-0.0021,0.0021,0.0047,0.0057,0.0091,0.0062,0.0051,0.0103,0.0107,0.0111,0.0148,0.0155,0.0063,0.0063,0.0063,0,-0.0342,-0.0346,-0.0316,-0.0315,-0.0305,-0.0259,-0.0261,-0.0228,-0.018,-0.016,-0.0149,-0.0059,-0.0022,0.0036,0.0038,0.0056,0.0083,0.0054,0.0102,0.0106,0.0111,0.0148,0.0156,0.0062,0.0062,0.0062,0.0062,0,-0.037,-0.0373,-0.0376,-0.036,-0.0342,-0.0338,-0.029,-0.0267,-0.0236,-0.0197,-0.0141,-0.0079,-0.0027,-0.0006,0.002,0.007,0.0079,0.0094,0.0106,0.0113,0.0152,0.0161,0.006,0.0061,0.0061,0.0061,0,0,-0.0414,-0.0402,-0.0403,-0.0408,-0.0367,-0.0359,-0.0328,-0.0287,-0.0268,-0.0207,-0.0172,-0.0096,-0.0059,-0.0028,0.002,0.0069,0.0122,0.0087,0.0091,0.0124,0.0229,0.0202,0.021,0.0148,0.0149,0.015,0.0243,0,-0.0448,-0.0472,-0.0443,-0.0455,-0.0463,-0.0409,-0.0387,-0.034,-0.0289,-0.0242,-0.0157,-0.0111,-0.0066,-0.0042,0.0018,0.0097,0.0145,0.0095,0.0217,0.022,0.0196,0.0219,0.0155,0.0249,0.0252,0.0253,0.0254,0,-0.048,-0.0495,-0.0523,-0.0514,-0.0511,-0.0506,-0.0465,-0.0437,-0.0349,-0.0307,-0.0229,-0.0162,-0.0069,-0.0043,0.0108,0.0073,0.0142,0.0204,0.021,0.0197,0.021,0.0243,0.0271,0.027,0.0268,0.0267,0.0266,0,-0.0537,-0.0545,-0.0577,-0.0574,-0.0554,-0.0553,-0.0536,-0.0466,-0.0444,-0.035,-0.032,-0.0192,-0.0132,-0.0017,0.0119,0.0112,0.0279,0.0287,0.0331,0.033,0.0336,0.0331,0.0383,0.0383,0.0383,0.0383,0.0382,0,-0.0578,-0.0602,-0.0615,-0.0633,-0.0666,-0.0623,-0.0632,-0.0585,-0.0521,-0.0491,-0.0366,-0.0308,-0.0124,-0.0001,0.0114,0.0254,0.0281,0.0332,0.0356,0.0323,0.0316,0.0342,0.0336,0.0386,0.0385,0.0385,0.0384,0,-0.0625,-0.0634,-0.0677,-0.0689,-0.0697,-0.0722,-0.0713,-0.0711,-0.0637,-0.0591,-0.0564,-0.0391,-0.0225,-0.0043,0.0155,0.0237,0.0375,0.0414,0.0362,0.0381,0.0389,0.0381,0.0467,0.0467,0.0467,0.0467,0.0467,0,-0.0647,-0.0677,-0.0734,-0.0776,-0.0787,-0.0819,-0.0836,-0.078,-0.0763,-0.0639,-0.0614,-0.0444,-0.0316,-0.0046,0.0138,0.0363,0.0387,0.0449,0.0422,0.0385,0.04,0.0392,0.0384,0.0467,0.0467,0.0467,0.0467,0,-0.0689,-0.0717,-0.0759,-0.0851,-0.0897,-0.0936,-0.0948,-0.0943,-0.0858,-0.0795,-0.0647,-0.0481,-0.0289,-0.0061,0.0122,0.0279,0.0406,0.0448,0.0449,0.0425,0.0386,0.0399,0.0391,0.0466,0.0467,0.0467,0.0467,0,-0.0719,-0.0769,-0.0837,-0.0908,-0.0981,-0.1025,-0.1026,-0.0982,-0.0945,-0.0787,-0.0742,-0.0508,-0.0354,-0.0104,0.0062,0.0221,0.0248,0.0277,0.0287,0.0289,0.0209,0.0132,0.0158,0,0,0,0,0,-0.0741,-0.0802,-0.0885,-0.0964,-0.1038,-0.107,-0.1081,-0.106,-0.0976,-0.0887,-0.0807,-0.0621,-0.0335,-0.0194,-0.0043,0.0034,0.0254,0.0212,0.0286,0.0465,0.0465,0.0399,0,0,0,0,0,0,-0.0761,-0.0846,-0.089,-0.0991,-0.105,-0.1116,-0.1128,-0.1076,-0.1005,-0.0898,-0.0739,-0.0612,-0.0331,-0.0422,-0.0047,0.0006,0.0065,0.0366,0.0368,0.0465,0.0465,0.0465,0.0397,0,0,0,0,0]}]]